User: anonymous   Login
Location: Bayshore Village Mobile Home Park
(26.6945°N, 81.8642°W)
Time: 09:30:41
(UTC+00:00)
Language:

Cosmos 773 Rocket - Orbit

View from above orbital plane
View from above orbital plane
View from above satellite
View from above satellite

Ground track
Ground track

The orbit data is extracted from the following two-line orbital elements,

1  8344U 75094B   21263.89346393  .00000085  00000-0  35934-4 0  9994
2  8344  74.0564 136.8978 0021691   5.3372 354.8010 14.39190393409622
Epoch (UTC): 20 September 2021 21:26:35
Eccentricity: 0.0021691
inclination: 74.0564°
perigee height: 745 km
apogee height: 776 km
right ascension of ascending node: 136.8978°
argument of perigee: 5.3372°
revolutions per day: 14.39190393
mean anomaly at epoch: 354.8010°
orbit number at epoch: 40962

The dashed part of the orbit path shows where the satellite is in the earth's shadow,  

DLR